| time (UTC) | temp C | wind direction | speed KPH | gust KPH | rain 1hr cm | rain 24hr cm | rain mn cm | humidity % | barometer mb |
| 20260504204526 | 22 | 90 | 9.7 | 20.9 | 0.00 | 0.00 | 0.00 | 31 | 1012.4 |
| 20260504203028 | 21 | 343 | 8.0 | 19.3 | 0.00 | 0.00 | 0.00 | 31 | 1012.4 |
| 20260504201522 | 21 | 73 | 11.3 | 20.9 | 0.00 | 0.00 | 0.00 | 31 | 1012.5 |
| 20260504200020 | 21 | 319 | 9.7 | 20.9 | 0.00 | 0.00 | 0.00 | 31 | 1012.5 |
| 20260504194519 | 21 | 36 | 8.0 | 22.5 | 0.00 | 0.00 | 0.00 | 33 | 1012.7 |
| 20260504193023 | 21 | 33 | 6.4 | 17.7 | 0.00 | 0.00 | 0.00 | 33 | 1012.7 |
| 20260504191520 | 20 | 24 | 9.7 | 25.7 | 0.00 | 0.00 | 0.00 | 34 | 1013.0 |
| 20260504190014 | 20 | 75 | 14.5 | 22.5 | 0.00 | 0.00 | 0.00 | 34 | 1013.0 |
| 20260504184513 | 20 | 310 | 6.4 | 22.5 | 0.00 | 0.00 | 0.00 | 35 | 1013.2 |
| 20260504183011 | 20 | 112 | 14.5 | 29.0 | 0.00 | 0.00 | 0.00 | 35 | 1013.2 |
| 20260504181515 | 20 | 339 | 9.7 | 22.5 | 0.00 | 0.00 | 0.00 | 34 | 1013.3 |
| 20260504180006 | 19 | 25 | 4.8 | 29.0 | 0.00 | 0.00 | 0.00 | 36 | 1013.4 |
| 20260504174505 | 19 | 39 | 12.9 | 22.5 | 0.00 | 0.00 | 0.00 | 35 | 1013.3 |
| 20260504173003 | 18 | 105 | 8.0 | 27.4 | 0.00 | 0.00 | 0.00 | 36 | 1013.3 |
| 20260504171505 | 18 | 346 | 12.9 | 24.1 | 0.00 | 0.00 | 0.00 | 36 | 1013.4 |
| 20260504100108 | 7 | 260 | 0.0 | 1.6 | 0.00 | 0.03 | 0.00 | 83 | 1012.2 |
| 20260504081540 | 9 | 289 | 0.0 | 0.0 | 0.00 | 0.05 | 0.00 | 78 | 1011.6 |
| 20260504050022 | 16 | 75 | 0.0 | 1.6 | 0.00 | 0.05 | 0.05 | 54 | 1011.2 |
| 20260504044525 | 16 | 75 | 0.0 | 3.2 | 0.00 | 0.05 | 0.05 | 54 | 1011.2 |
| 20260504043024 | 16 | 78 | 0.0 | 4.8 | 0.00 | 0.05 | 0.05 | 49 | 1011.2 |
| 20260504041524 | 16 | 7 | 0.0 | 1.6 | 0.00 | 0.05 | 0.05 | 50 | 1011.1 |
| 20260504040023 | 16 | 9 | 0.0 | 1.6 | 0.00 | 0.05 | 0.05 | 53 | 1010.9 |
| 20260504034530 | 17 | 51 | 0.0 | 1.6 | 0.00 | 0.05 | 0.05 | 57 | 1010.7 |
| 20260504033034 | 17 | 294 | 0.0 | 0.0 | 0.00 | 0.05 | 0.05 | 52 | 1010.6 |
| 20260504031518 | 18 | 294 | 0.0 | 0.0 | 0.00 | 0.05 | 0.05 | 47 | 1010.5 |
| 20260504030017 | 20 | 16 | 0.0 | 3.2 | 0.00 | 0.05 | 0.05 | 44 | 1010.5 |
| 20260504024538 | 21 | 40 | 0.0 | 0.0 | 0.00 | 0.05 | 0.05 | 40 | 1010.4 |
| 20260504023017 | 22 | 6 | 0.0 | 4.8 | 0.00 | 0.05 | 0.05 | 36 | 1010.5 |
| 20260504021517 | 23 | 11 | 0.0 | 4.8 | 0.00 | 0.05 | 0.05 | 34 | 1010.4 |
| 20260504020016 | 23 | 74 | 0.0 | 1.6 | 0.00 | 0.05 | 0.05 | 34 | 1010.4 |
| 20260504014512 | 24 | 49 | 0.0 | 6.4 | 0.00 | 0.05 | 0.05 | 32 | 1010.5 |
| 20260504013015 | 24 | 290 | 0.0 | 3.2 | 0.00 | 0.05 | 0.05 | 32 | 1010.7 |
| 20260504011508 | 23 | 308 | 0.0 | 4.8 | 0.00 | 0.05 | 0.05 | 32 | 1010.8 |
| 20260504010007 | 23 | 65 | 0.0 | 4.8 | 0.00 | 0.05 | 0.05 | 32 | 1011.0 |
| 20260504004508 | 23 | 18 | 0.0 | 9.7 | 0.00 | 0.05 | 0.05 | 30 | 1011.2 |
| 20260504003002 | 23 | 80 | 3.2 | 9.7 | 0.00 | 0.05 | 0.05 | 30 | 1011.3 |
| 20260504001607 | 23 | 73 | 4.8 | 9.7 | 0.00 | 0.05 | 0.05 | 31 | 1011.5 |
| 20260503234557 | 24 | 108 | 8.0 | 12.9 | 0.00 | 0.05 | 0.05 | 28 | 1011.7 |
| 20260503233054 | 23 | 104 | 6.4 | 14.5 | 0.00 | 0.05 | 0.05 | 30 | 1011.9 |
| 20260503231555 | 22 | 79 | 11.3 | 16.1 | 0.00 | 0.05 | 0.05 | 30 | 1012.2 |
| 20260503230051 | 23 | 110 | 8.0 | 14.5 | 0.00 | 0.05 | 0.05 | 29 | 1012.4 |
| 20260503224544 | 22 | 89 | 9.7 | 14.5 | 0.00 | 0.05 | 0.05 | 30 | 1012.6 |
| 20260503223042 | 22 | 111 | 11.3 | 19.3 | 0.00 | 0.05 | 0.05 | 32 | 1013.0 |
| 20260503221541 | 22 | 79 | 8.0 | 16.1 | 0.00 | 0.05 | 0.05 | 32 | 1013.2 |
| 20260503220039 | 22 | 71 | 11.3 | 16.1 | 0.00 | 0.05 | 0.05 | 32 | 1013.4 |
| 20260503214533 | 22 | 66 | 9.7 | 16.1 | 0.00 | 0.05 | 0.05 | 33 | 1013.7 |
| 20260503213032 | 21 | 105 | 8.0 | 14.5 | 0.00 | 0.05 | 0.05 | 33 | 1014.0 |
| 20260503211537 | 21 | 84 | 6.4 | 12.9 | 0.00 | 0.05 | 0.05 | 33 | 1014.2 |
| 20260503210026 | 21 | 78 | 8.0 | 16.1 | 0.00 | 0.05 | 0.05 | 38 | 1014.5 |